Weather History for 76305 - October, 2012

Change the Weather History Date:

Saturday, October 27, 2012

  Actual Average Record
Temperature  
Mean Temperature 76 °F -  
Max Temperature 86 °F 80 °F - ()
Min Temperature 65 °F 70 °F - ()
Cooling Degree Days 10    
Growing Degree Days 26 (Base 50)    
Moisture  
Dew Point 62 °F    
Average Humidity 55    
Maximum Humidity 68    
Minimum Humidity 30    
Precipitation  
Precipitation 0.00 in - - ()
Sea Level Pressure  
Sea Level Pressure 29.82 in    
Wind  
Wind Speed 4 mph ()    
Max Wind Speed 12 mph    
Max Gust Speed -    
Visibility 9.5 miles    
Events      
T = Trace of Precipitation, MM = Missing Value Source: Averaged Metar Reports

Daily Weather History Graph

Daily Weather History Graph

Search for Another Location

Airport or City:

Trip Planner

Search our weather history database for the weather conditions in past years. The results will help you decide how hot, cold, wet, or windy it might be!

Date:

Astronomy

Oct. 27, 2012 Rise Set
Actual Time 1:31 PM GMT 12:46 AM GMT
Civil Twilight 1:07 PM GMT 1:10 AM GMT
Nautical Twilight 12:40 PM GMT 1:37 AM GMT
Astronomical Twilight 12:13 PM GMT 2:04 AM GMT
Moon 11:29 PM GMT (10/27) 11:38 AM GMT (10/27)
Length of Visible Light 12h 02m
Length of Day
11h 15m
Waxing Gibbous, 95% of the Moon is Illuminated
Oct 27
Waxing Gibbous
Oct 29
Full
Nov 7
Last Quarter
Nov 13
New
Nov 20
First Quarter

Hourly Weather History & Observations

Time (GMT) Temp. Heat Index Dew Point Humidity Pressure Visibility Wind Dir Wind Speed Gust Speed Precip Events Conditions
12:45 AM 80.6 °F 83.2 °F 68.0 °F 65% 29.77 in 8.0 mi Calm Calm - N/A   Clear
2:35 AM 76 °F - 58 °F 43% 29.82 in 12 mi NNW 11.2 mph - -  
5:35 AM 73 °F - 63 °F 62% 29.84 in 12 mi NNW 4.5 mph - -  
8:45 AM 71 °F - 62 °F 64% 29.81 in 12 mi NNW 2.2 mph - -  
11:30 AM 68 °F - 56 °F 57% 29.80 in 12 mi North 2.2 mph - -  
1:05 PM 69.8 °F - 59.0 °F 68% 29.83 in 8.0 mi Calm Calm - N/A   Clear
1:42 PM 69.8 °F - 59.0 °F 68% 29.83 in 8.0 mi NW 6.9 mph - N/A   Clear
2:30 PM 65 °F - 56 °F 64% 29.84 in 12 mi Calm Calm - -  
2:40 PM 71.6 °F - 59.0 °F 64% 29.84 in 8.0 mi Calm Calm - N/A   Clear
3:44 PM 77.0 °F - 62.6 °F 61% 29.85 in 8.0 mi Calm Calm - N/A   Clear
4:44 PM 77.0 °F - 62.6 °F 61% 29.85 in 8.0 mi Calm Calm - N/A   Clear
5:43 PM 80.6 °F 81.8 °F 62.6 °F 54% 29.85 in 8.0 mi NW 6.9 mph - N/A   Clear
5:45 PM 83 °F - 56 °F 30% 29.85 in 12 mi NNW 6.7 mph - -  
6:40 PM 82.4 °F 83.4 °F 62.6 °F 51% 29.84 in 8.0 mi NNE 6.9 mph - N/A   Clear
7:42 PM 82.4 °F 83.4 °F 62.6 °F 51% 29.80 in 8.0 mi NNE 6.9 mph - N/A   Clear
8:45 PM 85 °F - 65 °F 41% 29.80 in 12 mi ENE 4.5 mph - -  
8:49 PM 84.2 °F 85.6 °F 64.4 °F 51% 29.78 in 8.0 mi NNE 6.9 mph - N/A   Clear
9:46 PM 84.2 °F 85.6 °F 64.4 °F 51% 29.77 in 8.0 mi NNE 11.5 mph - N/A   Clear
10:50 PM 84.2 °F 85.6 °F 64.4 °F 51% 29.77 in 8.0 mi North 11.5 mph - N/A   Clear
11:35 PM 82 °F - 66 °F 49% 29.80 in 12 mi NE 6.7 mph - -   Clear
11:45 PM 84.2 °F 86.6 °F 66.2 °F 55% 29.78 in 8.0 mi North 11.5 mph - N/A   Clear